Location: *
(41.7492°S, 135.4150°W)
Time: 23:40:42
(UTC+00:00)

METEOR M2 - Pass Details

Date: 08 July 2022
Orbit: 818 x 827 km, 98.4° (Epoch: 17 August)

Event Time Altitude Azimuth Distance (km) Brightness Sun altitude
Rises 13:29:45 0° 67° (ENE) 3,358 ? -32.5°
Reaches altitude 10° 13:33:11 10° 90° (E) 2,433 ? -31.9°
Maximum altitude 13:35:57 14° 121° (ESE) 2,143 ? -31.4°
Drops below altitude 10° 13:38:43 10° 152° (SSE) 2,446 ? -30.8°
Sets 13:42:11 0° 175° (S) 3,388 ? -30.2°
